Akron, OH

1:42 PM EST on February 18, 2018 (GMT -0500)
Akron Fulton International

Weather History for KAKR - November, 2013

Change the Weather History Date:

Friday, November 8, 2013

  Actual Average (KCAK) Record (KCAK)
Temperature  
Mean Temperature 34 °F -  
Max Temperature 41 °F 51 °F 71 °F (1916)
Min Temperature 28 °F 35 °F 18 °F (1976)
Degree Days  
Heating Degree Days 30    
Moisture  
Dew Point 27 °F    
Average Humidity 73    
Maximum Humidity 89    
Minimum Humidity 53    
Precipitation  
Precipitation 0.00 in - - ()
Sea Level Pressure  
Sea Level Pressure 30.23 in    
Wind  
Wind Speed 9 mph (West)    
Max Wind Speed 15 mph    
Max Gust Speed 21 mph    
Visibility 10 miles    
Events      
Averages and records for this station are not official NWS values.
T = Trace of Precipitation, MM = Missing Value Source: NWS Daily Summary

Daily Weather History Graph

Daily Weather History Graph

Search for Another Location

Airport or City:

Trip Planner

Search our weather history database for the weather conditions in past years. The results will help you decide how hot, cold, wet, or windy it might be!

Date:

Astronomy

Nov. 08, 2013 Rise Set
Actual Time 7:05 AM EST 5:13 PM EST
Civil Twilight 6:36 AM EST 5:42 PM EST
Nautical Twilight 6:03 AM EST 6:15 PM EST
Astronomical Twilight 5:31 AM EST 6:47 PM EST
Moon 12:00 PM EST (11/8) 10:32 PM EST (11/8)
Length of Visible Light 11h 06m
Length of Day
10h 08m
Waxing Crescent, 33% of the Moon is Illuminated
Nov 8
Waxing Crescent
Nov 10
First Quarter
Nov 17
Full
Nov 25
Last Quarter
Dec 2
New

Hourly Weather History & Observations

Time (EST) Temp. Windchill Dew Point Humidity Pressure Visibility Wind Dir Wind Speed Gust Speed Precip Events Conditions
12:30 AM 39.2 °F 32.5 °F 30.2 °F 70% 30.09 in 10.0 mi West 10.4 mph 18.4 mph N/A   Overcast
12:54 AM 39.0 °F 32.8 °F 30.9 °F 73% 30.11 in 10.0 mi West 9.2 mph 18.4 mph N/A   Overcast
1:02 AM 39.2 °F 31.6 °F 30.2 °F 70% 30.09 in 10.0 mi West 12.7 mph - N/A   Overcast
1:54 AM 37.9 °F 29.2 °F 32.0 °F 79% 30.12 in 10.0 mi WNW 15.0 mph - 0.00 in   Overcast
2:09 AM 37.4 °F 29.8 °F 30.2 °F 75% 30.10 in 10.0 mi NW 11.5 mph - N/A   Overcast
2:54 AM 34.0 °F 26.6 °F 28.9 °F 82% 30.13 in 10.0 mi West 9.2 mph - N/A   Partly Cloudy
3:54 AM 34.0 °F 27.2 °F 30.0 °F 85% 30.14 in 10.0 mi West 8.1 mph - N/A   Clear
4:54 AM 33.1 °F 25.5 °F 30.0 °F 89% 30.17 in 9.0 mi West 9.2 mph - N/A   Clear
5:54 AM 32.0 °F 25.6 °F 28.9 °F 88% 30.18 in 10.0 mi West 6.9 mph - N/A   Overcast
6:54 AM 32.0 °F 25.6 °F 28.0 °F 85% 30.20 in 10.0 mi West 6.9 mph - N/A   Partly Cloudy
7:54 AM 33.1 °F 25.5 °F 28.9 °F 85% 30.24 in 10.0 mi West 9.2 mph - N/A   Mostly Cloudy
8:54 AM 35.1 °F 27.9 °F 28.0 °F 76% 30.26 in 10.0 mi West 9.2 mph - N/A   Overcast
9:54 AM 37.0 °F 31.0 °F 28.9 °F 73% 30.28 in 10.0 mi West 8.1 mph - 0.00 in   Overcast
10:54 AM 41.0 °F 33.5 °F 28.0 °F 60% 30.29 in 10.0 mi West 13.8 mph 20.7 mph N/A   Mostly Cloudy
11:54 AM 39.0 °F 31.4 °F 26.1 °F 60% 30.30 in 10.0 mi West 12.7 mph - N/A   Overcast
12:54 PM 39.0 °F 32.3 °F 27.0 °F 62% 30.28 in 10.0 mi West 10.4 mph - N/A   Overcast
1:54 PM 39.9 °F 32.5 °F 25.0 °F 55% 30.28 in 10.0 mi West 12.7 mph - N/A   Overcast
2:54 PM 39.9 °F 33.9 °F 25.0 °F 55% 30.28 in 10.0 mi West 9.2 mph - N/A   Overcast
3:54 PM 39.9 °F 34.5 °F 24.1 °F 53% 30.29 in 10.0 mi WNW 8.1 mph - N/A   Overcast
4:54 PM 39.0 °F 34.0 °F 25.0 °F 57% 30.28 in 10.0 mi West 6.9 mph - N/A   Overcast
5:54 PM 37.0 °F 34.5 °F 25.0 °F 62% 30.29 in 10.0 mi West 3.5 mph - N/A   Overcast
6:54 PM 33.1 °F - 26.1 °F 75% 30.30 in 10.0 mi Calm Calm - N/A   Clear
7:54 PM 30.9 °F - 25.0 °F 79% 30.30 in 10.0 mi Calm Calm - N/A   Clear
8:54 PM 28.0 °F - 24.1 °F 85% 30.30 in 10.0 mi Calm Calm - N/A   Clear
9:54 PM 28.0 °F - 24.1 °F 85% 30.29 in 9.0 mi Calm Calm - N/A   Clear
10:54 PM 28.0 °F - 24.1 °F 85% 30.28 in 9.0 mi Calm Calm - N/A   Clear
11:54 PM 30.0 °F - 24.1 °F 79% 30.27 in 9.0 mi Calm Calm - N/A   Clear